�N����,����,�~����,�C��,���x,�C��,����,���ϕ���,�ő�u�ԕ���,�ő厞����,���˗�,�I�_���x,�n�����x,�ő啗���N��,DTYPE
"23/07/06","00:10",0.0,23.2,96.0,995.3,294.6,0.6,2.1,326.8,0.00,22.6,23.5,"00:08:20",1
"23/07/06","00:20",0.0,23.2,96.0,995.6,301.4,0.7,1.7,282.4,0.00,22.6,23.3,"00:17:12",1
"23/07/06","00:30",0.0,23.2,96.0,995.8,229.4,0.2,0.6,250.5,0.00,22.6,23.2,"00:20:08",1
"23/07/06","00:40",0.0,23.2,96.0,995.6,326.7,0.7,1.4,332.1,0.00,22.6,23.4,"00:36:16",1
"23/07/06","00:50",0.0,23.3,96.1,995.8,234.0,0.8,1.7,347.5,0.00,22.7,23.3,"00:47:52",1
"23/07/06","01:00",0.0,23.3,96.1,995.8,258.4,0.5,2.0,329.4,0.00,22.7,23.3,"00:51:20",1
"23/07/06","01:10",0.0,23.3,96.2,995.6,337.5,0.7,1.1,343.6,0.00,22.7,23.2,"01:04:08",1
"23/07/06","01:20",0.0,23.3,96.1,995.8,312.6,0.6,1.1,309.3,0.00,22.7,23.3,"01:10:32",1
"23/07/06","01:30",0.0,23.2,96.2,995.6,266.6,0.6,1.1,333.0,0.00,22.6,23.3,"01:20:40",1
"23/07/06","01:40",0.0,23.0,96.2,995.1,254.1,0.5,0.9,216.9,0.00,22.4,23.4,"01:31:36",1
"23/07/06","01:50",0.0,22.9,96.3,995.3,343.2,0.7,1.1,340.9,0.00,22.3,23.3,"01:48:48",1
"23/07/06","02:00",0.0,22.7,96.3,995.8,335.2,0.8,1.3,340.0,0.00,22.1,23.2,"01:56:56",1
"23/07/06","02:10",0.0,22.5,96.5,995.8,324.9,0.6,1.0,337.8,0.00,22.0,23.2,"02:08:08",1
"23/07/06","02:20",0.0,22.6,96.5,995.8,296.8,0.8,1.2,307.7,0.00,22.1,23.1,"02:12:24",1
"23/07/06","02:30",0.0,22.6,96.5,995.8,299.9,0.7,1.4,317.0,0.00,22.1,23.1,"02:21:36",1
"23/07/06","02:40",0.0,22.6,96.6,995.8,266.0,0.7,1.2,319.5,0.00,22.1,23.1,"02:38:56",1
"23/07/06","02:50",0.0,22.5,96.6,995.8,330.3,1.0,1.2,324.8,0.00,22.0,23.2,"02:44:00",1
"23/07/06","03:00",0.0,22.3,96.6,995.8,328.9,1.0,1.3,334.6,0.00,21.8,23.2,"02:52:08",1
"23/07/06","03:10",0.0,22.1,96.7,995.6,7.0,0.3,1.0,338.5,0.00,21.6,23.2,"03:01:28",1
"23/07/06","03:20",0.0,21.9,96.7,995.3,271.1,0.3,0.8,265.5,0.00,21.4,23.1,"03:12:24",1
"23/07/06","03:30",0.0,21.8,96.9,996.3,322.0,0.5,1.0,285.6,0.00,21.3,23.1,"03:23:44",1
"23/07/06","03:40",0.0,22.0,96.9,996.3,336.0,0.8,1.2,351.4,0.00,21.5,23.1,"03:35:36",1
"23/07/06","03:50",0.0,22.0,96.9,996.5,315.6,0.7,1.0,316.0,0.00,21.5,23.1,"03:44:32",1
"23/07/06","04:00",0.0,22.0,96.9,996.5,325.6,0.6,1.4,326.0,0.00,21.5,23.0,"03:52:56",1
"23/07/06","04:10",0.0,21.9,97.0,996.3,298.2,0.6,1.3,307.7,0.00,21.4,23.0,"04:08:08",1
"23/07/06","04:20",0.0,21.9,97.0,996.3,242.8,0.6,1.1,247.3,0.00,21.4,23.1,"04:10:56",1
"23/07/06","04:30",0.0,21.9,97.0,996.5,358.1,0.5,1.4,0.7,0.00,21.4,23.0,"04:25:20",1
"23/07/06","04:40",0.0,21.7,97.0,996.5,4.0,0.2,0.9,315.4,0.00,21.2,23.1,"04:30:02",1
"23/07/06","04:50",0.0,21.6,97.1,996.3,283.1,0.6,1.1,315.0,0.00,21.2,22.9,"04:40:24",1
"23/07/06","05:00",0.0,21.7,97.2,996.5,312.7,0.7,1.3,304.4,0.00,21.3,23.0,"04:57:44",1
"23/07/06","05:10",0.0,21.7,97.2,996.5,312.2,1.0,1.6,337.1,0.00,21.3,23.1,"05:04:40",1
"23/07/06","05:20",0.0,21.6,97.2,997.0,312.7,0.5,0.9,329.6,0.00,21.2,22.7,"05:15:20",1
"23/07/06","05:30",0.0,21.6,97.2,997.0,275.5,0.6,0.6,306.1,0.00,21.2,22.9,"05:21:12",1
"23/07/06","05:40",0.0,21.5,97.3,997.2,299.0,0.7,1.3,325.3,0.00,21.1,22.8,"05:38:24",1
"23/07/06","05:50",0.0,21.4,97.3,997.0,312.6,0.2,0.8,308.1,0.00,21.0,22.9,"05:40:40",1
"23/07/06","06:00",0.0,21.6,97.4,997.4,285.4,0.7,1.1,261.9,0.00,21.2,23.0,"05:58:56",1
"23/07/06","06:10",0.0,21.7,97.4,997.2,305.7,0.6,1.0,333.9,0.00,21.3,22.9,"06:08:16",1
"23/07/06","06:20",0.0,22.0,97.4,997.7,326.6,0.6,0.9,322.4,0.00,21.6,22.7,"06:11:12",1
"23/07/06","06:30",0.0,22.2,97.3,997.4,306.4,0.7,1.1,318.1,0.01,21.8,22.6,"06:26:48",1
"23/07/06","06:40",0.0,22.3,97.3,997.7,274.9,0.5,0.9,268.6,0.02,21.9,22.6,"06:31:44",1
"23/07/06","06:50",0.0,22.3,97.3,997.9,279.7,0.2,1.0,303.4,0.03,21.9,22.9,"06:40:56",1
"23/07/06","07:00",0.0,22.7,97.3,997.9,284.5,0.6,1.4,347.0,0.07,22.3,22.5,"06:58:32",1
"23/07/06","07:10",0.0,23.1,97.3,997.9,260.7,0.5,1.1,334.0,0.11,22.7,22.7,"07:00:24",1
"23/07/06","07:20",0.0,23.2,97.2,998.2,317.1,0.6,1.2,341.1,0.10,22.8,22.8,"07:14:00",1
"23/07/06","07:30",0.0,23.8,97.2,997.9,344.8,0.6,1.3,341.8,0.13,23.4,22.6,"07:20:32",1
"23/07/06","07:40",0.0,23.8,97.0,997.7,354.5,0.3,0.6,10.1,0.09,23.3,22.8,"07:33:12",1
"23/07/06","07:50",0.0,24.0,97.0,998.2,249.1,0.2,0.8,138.8,0.10,23.5,22.8,"07:49:36",1
"23/07/06","08:00",0.0,24.0,96.9,998.4,169.2,0.3,1.0,173.5,0.09,23.5,22.8,"07:57:28",1
"23/07/06","08:10",0.0,23.7,96.9,998.2,209.0,1.0,2.2,232.0,0.09,23.2,22.9,"08:05:12",1
"23/07/06","08:20",0.0,23.8,96.8,997.9,225.9,0.8,1.4,243.5,0.09,23.3,22.6,"08:15:20",1
"23/07/06","08:30",0.0,23.8,96.7,998.2,224.9,1.1,2.0,232.9,0.10,23.3,22.9,"08:22:40",1
"23/07/06","08:40",0.0,24.1,96.5,997.9,234.5,0.5,1.0,212.3,0.13,23.5,22.7,"08:38:40",1
"23/07/06","08:50",0.0,25.1,96.5,998.2,242.8,0.2,0.6,254.6,0.17,24.5,22.8,"08:42:00",1
"23/07/06","09:00",0.0,25.8,96.5,997.9,290.7,0.5,1.0,332.3,0.25,25.2,23.0,"08:57:36",1
"23/07/06","09:10",0.0,26.5,95.9,997.7,85.5,0.3,1.1,0.1,0.36,25.8,22.8,"09:07:44",1
"23/07/06","09:20",0.0,26.2,95.6,997.2,19.4,0.8,1.9,4.3,0.41,25.5,22.8,"09:14:32",1
"23/07/06","09:30",0.0,26.5,94.6,997.9,39.9,0.6,2.0,21.1,0.37,25.6,23.1,"09:21:52",1
"23/07/06","09:40",0.0,26.8,94.3,998.9,18.9,0.7,1.8,30.6,0.34,25.8,23.2,"09:31:36",1
"23/07/06","09:50",0.0,27.3,92.5,998.9,52.5,0.8,1.9,115.8,0.36,26.0,23.1,"09:48:08",1
"23/07/06","10:00",0.0,27.8,90.3,999.3,135.4,0.8,1.8,160.5,0.37,26.1,23.2,"09:51:36",1
"23/07/06","10:10",0.0,28.8,86.8,999.6,97.4,0.8,2.2,117.7,0.40,26.4,23.1,"10:09:12",1
"23/07/06","10:20",0.0,29.5,80.6,999.6,140.6,1.2,2.5,193.1,0.42,25.8,23.1,"10:10:40",1
"23/07/06","10:30",0.0,29.9,77.6,1000.0,149.8,1.2,2.6,118.5,0.44,25.6,23.0,"10:25:36",1
"23/07/06","10:40",0.0,30.9,75.2,1000.0,110.2,0.8,1.9,105.6,0.47,26.0,23.3,"10:35:44",1
"23/07/06","10:50",0.0,30.8,74.3,999.8,130.9,1.3,3.5,130.3,0.51,25.7,23.4,"10:40:08",1
"23/07/06","11:00",0.0,30.4,72.0,999.8,156.1,1.7,4.2,198.9,0.50,24.8,23.4,"10:54:56",1
"23/07/06","11:10",0.0,30.8,71.5,999.8,181.8,1.1,3.2,205.7,0.48,25.1,23.5,"11:02:16",1
"23/07/06","11:20",0.0,31.0,70.2,999.6,192.7,1.5,4.3,210.4,0.55,25.0,23.6,"11:12:00",1
"23/07/06","11:30",0.0,30.9,68.2,1000.0,154.2,1.6,3.1,145.7,0.45,24.4,23.5,"11:22:24",1
"23/07/06","11:40",0.0,31.2,68.6,999.1,141.0,1.0,2.1,178.2,0.33,24.8,23.8,"11:36:16",1
"23/07/06","11:50",0.0,30.9,69.2,999.3,186.7,1.6,3.7,193.1,0.34,24.6,23.8,"11:46:40",1
"23/07/06","12:00",0.0,31.5,66.8,999.6,207.6,1.3,3.1,194.3,0.48,24.6,23.8,"11:54:24",1
"23/07/06","12:10",0.0,31.3,68.1,999.1,196.3,2.0,5.1,206.6,0.41,24.7,23.9,"12:02:24",1
"23/07/06","12:20",0.0,30.7,67.2,999.1,170.8,2.1,3.9,179.5,0.27,24.0,24.0,"12:14:16",1
"23/07/06","12:30",0.0,31.1,66.9,998.4,184.8,1.7,3.7,212.5,0.43,24.3,23.9,"12:23:52",1
"23/07/06","12:40",0.0,32.1,65.8,998.9,169.9,1.5,3.6,227.4,0.58,24.9,24.1,"12:32:32",1
"23/07/06","12:50",0.0,31.9,63.1,999.1,186.3,2.3,4.0,199.5,0.59,24.0,24.1,"12:48:08",1
"23/07/06","13:00",0.0,32.6,65.3,999.1,164.9,1.7,3.9,209.5,0.57,25.3,24.4,"12:51:28",1
"23/07/06","13:10",0.0,32.8,62.5,999.3,171.1,1.7,3.7,183.3,0.57,24.7,24.3,"13:01:52",1
"23/07/06","13:20",0.0,32.6,63.9,999.1,171.7,1.7,4.5,189.8,0.45,24.9,24.5,"13:12:08",1
"23/07/06","13:30",0.0,32.6,63.9,999.6,142.1,1.7,2.9,144.5,0.46,24.9,24.3,"13:25:20",1
"23/07/06","13:40",0.0,33.3,62.8,999.6,159.0,1.1,2.7,174.9,0.52,25.3,24.5,"13:30:24",1
"23/07/06","13:50",0.0,33.0,60.3,999.6,171.3,1.6,3.2,171.3,0.50,24.3,24.6,"13:43:44",1
"23/07/06","14:00",0.0,33.5,59.0,999.8,201.4,1.2,2.5,199.7,0.46,24.4,24.6,"13:51:36",1
"23/07/06","14:10",0.0,33.6,58.0,999.8,286.4,1.0,2.9,314.6,0.41,24.2,24.8,"14:00:08",1
"23/07/06","14:20",0.0,33.9,56.2,999.6,210.3,1.6,3.4,205.7,0.47,24.0,24.7,"14:14:08",1
"23/07/06","14:30",0.0,33.8,57.6,999.8,204.5,1.2,3.4,236.7,0.36,24.3,25.0,"14:24:00",1
"23/07/06","14:40",0.0,33.8,53.0,999.6,239.2,0.7,2.1,204.0,0.33,22.9,24.9,"14:30:40",1
"23/07/06","14:50",0.0,34.2,51.3,1000.0,324.6,1.1,2.4,348.8,0.45,22.8,24.7,"14:41:44",1
"23/07/06","15:00",0.0,34.3,50.9,999.6,316.3,0.7,1.6,319.4,0.32,22.7,24.8,"14:51:20",1
"23/07/06","15:10",0.0,33.7,52.9,999.6,250.2,1.3,3.5,207.9,0.27,22.8,25.2,"15:02:16",1
"23/07/06","15:20",0.0,33.8,50.7,999.3,240.3,1.5,3.4,243.3,0.39,22.2,25.1,"15:15:44",1
"23/07/06","15:30",0.0,33.8,50.6,999.1,278.1,0.8,2.9,349.9,0.31,22.2,25.2,"15:22:40",1
"23/07/06","15:40",0.0,34.6,50.5,999.6,233.7,1.0,2.4,231.6,0.36,22.9,25.0,"15:38:32",1
"23/07/06","15:50",0.0,34.2,50.5,999.6,334.0,1.2,2.7,336.7,0.33,22.5,25.2,"15:41:44",1
"23/07/06","16:00",0.0,34.7,50.4,999.6,277.6,1.2,4.0,213.5,0.38,22.9,25.2,"15:57:12",1
"23/07/06","16:10",0.0,34.3,53.4,999.6,182.5,0.7,2.2,234.9,0.18,23.5,25.2,"16:00:24",1
"23/07/06","16:20",0.0,34.8,52.4,999.6,252.2,0.3,1.7,157.6,0.29,23.7,25.4,"16:14:48",1
"23/07/06","16:30",0.0,34.5,50.9,1000.0,255.8,1.1,2.6,331.7,0.28,22.9,25.3,"16:22:32",1
"23/07/06","16:40",0.0,34.4,52.0,999.6,44.5,0.7,2.5,347.6,0.20,23.2,25.3,"16:39:52",1
"23/07/06","16:50",0.0,33.9,51.6,999.6,271.7,1.6,3.4,234.8,0.20,22.6,25.2,"16:45:36",1
"23/07/06","17:00",0.0,34.0,55.3,999.6,189.8,0.7,1.7,352.6,0.20,23.8,25.5,"16:51:20",1
"23/07/06","17:10",0.0,33.8,50.9,999.6,318.1,1.1,3.7,335.4,0.13,22.3,25.5,"17:06:56",1
"23/07/06","17:20",0.0,33.5,50.9,999.3,301.9,1.1,2.9,339.1,0.14,22.0,25.4,"17:16:40",1
"23/07/06","17:30",0.0,33.6,51.9,998.9,341.5,1.2,2.2,332.4,0.15,22.4,25.5,"17:26:16",1
"23/07/06","17:40",0.0,33.7,55.1,998.9,344.9,1.0,2.1,332.1,0.12,23.5,25.7,"17:36:24",1
"23/07/06","17:50",0.0,32.7,54.0,998.9,333.8,1.1,2.1,324.8,0.06,22.2,25.5,"17:47:20",1
"23/07/06","18:00",0.0,32.8,61.2,998.6,346.7,1.2,1.8,349.1,0.07,24.4,25.4,"17:52:32",1
"23/07/06","18:10",0.0,32.0,62.9,998.9,334.3,1.5,3.1,307.1,0.07,24.1,25.6,"18:06:48",1
"23/07/06","18:20",0.0,31.6,64.5,998.6,344.6,1.5,3.3,315.8,0.06,24.1,25.6,"18:10:56",1
"23/07/06","18:30",0.0,31.1,65.5,998.4,348.0,1.3,2.2,358.5,0.04,23.9,25.5,"18:20:40",1
"23/07/06","18:40",0.0,31.1,66.5,997.9,351.3,1.1,2.2,336.2,0.04,24.2,25.6,"18:34:40",1
"23/07/06","18:50",0.0,31.0,66.5,998.2,358.1,1.0,1.9,12.5,0.05,24.1,25.5,"18:46:40",1
"23/07/06","19:00",0.0,31.2,65.8,998.4,25.4,0.7,2.4,17.9,0.04,24.1,25.6,"18:57:20",1
"23/07/06","19:10",0.0,31.1,65.1,998.2,45.8,0.5,1.6,15.1,0.02,23.8,25.4,"19:09:12",1
"23/07/06","19:20",0.0,30.8,65.4,998.4,352.8,0.6,1.3,342.3,0.00,23.6,25.3,"19:10:02",1
"23/07/06","19:30",0.0,30.1,67.8,998.2,331.1,0.8,1.6,350.8,0.00,23.5,25.5,"19:22:08",1
"23/07/06","19:40",0.0,29.2,70.4,997.7,351.6,0.5,1.1,353.3,0.00,23.3,25.4,"19:31:52",1
"23/07/06","19:50",0.0,28.3,74.3,997.2,318.6,1.0,1.8,334.9,0.00,23.3,25.4,"19:44:40",1
"23/07/06","20:00",0.0,27.9,76.3,998.2,314.9,0.8,1.8,335.2,0.00,23.4,25.3,"19:59:20",1
"23/07/06","20:10",0.0,27.6,77.7,998.4,310.9,1.0,2.0,320.8,0.00,23.4,25.4,"20:06:48",1
"23/07/06","20:20",0.0,27.2,79.0,998.6,333.1,0.8,1.8,326.1,0.00,23.3,25.3,"20:11:44",1
"23/07/06","20:30",0.0,26.9,80.0,999.1,296.9,1.0,1.8,341.2,0.00,23.2,25.3,"20:25:44",1
"23/07/06","20:40",0.0,26.7,80.9,999.1,329.5,1.1,2.0,339.8,0.00,23.2,25.1,"20:37:28",1
"23/07/06","20:50",0.0,26.4,81.8,999.1,328.8,1.1,1.8,344.0,0.00,23.1,25.1,"20:47:12",1
"23/07/06","21:00",0.0,26.2,82.4,999.6,310.6,1.0,2.5,328.1,0.00,23.0,25.1,"20:50:56",1
"23/07/06","21:10",0.0,25.9,83.2,999.8,291.2,0.8,1.8,250.6,0.00,22.9,25.1,"21:00:16",1
"23/07/06","21:20",0.0,25.8,83.6,1000.0,298.7,0.8,1.7,253.6,0.00,22.9,24.9,"21:12:48",1
"23/07/06","21:30",0.0,25.7,84.2,1000.0,309.3,1.0,1.9,302.9,0.00,22.9,25.2,"21:27:20",1
"23/07/06","21:40",0.0,25.6,84.6,1000.3,312.0,1.2,1.9,329.9,0.00,22.9,24.9,"21:31:20",1
"23/07/06","21:50",0.0,25.4,85.0,1000.3,313.4,1.0,1.8,335.1,0.00,22.7,25.0,"21:44:08",1
"23/07/06","22:00",0.0,25.2,85.4,1000.5,296.5,0.8,1.4,312.6,0.00,22.6,24.8,"21:51:20",1
"23/07/06","22:10",0.0,25.1,85.7,1000.8,301.2,1.1,1.9,341.4,0.00,22.6,24.8,"22:09:20",1
"23/07/06","22:20",0.0,25.0,85.9,1001.0,310.3,1.0,2.0,304.2,0.00,22.5,24.9,"22:16:32",1
"23/07/06","22:30",0.0,24.9,86.2,1000.5,302.3,0.8,1.4,319.7,0.00,22.5,24.8,"22:24:40",1
"23/07/06","22:40",0.0,24.8,86.4,1000.3,313.5,1.0,1.7,313.4,0.00,22.4,24.8,"22:36:56",1
"23/07/06","22:50",0.0,24.7,86.7,1000.8,334.6,0.7,1.0,345.6,0.00,22.4,24.7,"22:48:40",1
"23/07/06","23:00",0.0,24.4,87.1,1000.8,329.7,0.6,1.0,358.6,0.00,22.2,24.7,"22:59:36",1
"23/07/06","23:10",0.0,24.5,87.7,1000.8,345.0,0.7,1.3,349.6,0.00,22.4,24.7,"23:09:04",1
"23/07/06","23:20",0.0,24.3,88.3,1000.5,339.5,1.0,1.4,355.1,0.00,22.3,24.6,"23:12:24",1
"23/07/06","23:30",0.0,23.9,88.8,1000.8,318.2,0.7,1.2,330.3,0.00,22.0,24.5,"23:20:08",1
"23/07/06","23:40",0.0,23.9,89.3,1000.8,283.0,0.8,1.7,340.4,0.00,22.1,24.5,"23:34:48",1
"23/07/06","23:50",0.0,23.8,89.5,1001.0,286.9,1.0,1.7,263.7,0.00,22.0,24.6,"23:41:20",1
"23/07/06","24:00",0.0,23.8,89.5,1001.2,312.0,1.0,1.8,324.0,0.00,22.0,24.5,"23:51:20",1
